Flag for Russia Weather past 2 weeks in Khabarovsk, Russia

Now
77 °F

Scattered clouds.


Feels Like: 79 °F
Forecast: 60 / 75 °F
Wind: 13 mph from West

Location: Habarovsk

Current Time: Jul 30, 2015 at 6:41:13 PM

Latest Report: Jul 30, 2015 at 6:00 PM


Visibility: N/A

Pressure: 29.62 "Hg

Humidity: 65%

Dew point: 64 °F

Location of KhabarovskLocation

Historic Weather in Khabarovsk — Graph

°F

Khabarovsk temperature yesterday

Maximum temperature yesterday: 79 °F (at 3:30 PM)
Minimum temperature yesterday: 64 °F (at 12:00 AM)
Average temperature yesterday: 71 °F

Past Weeks' High & Low Weather Summary

 TemperatureHumidityPressure
High88 °F (Jul 21, 3:30 PM)100% (Jul 16, 12:30 AM)29.95 "Hg (Jul 16, 12:30 AM)
Low54 °F (Jul 16, 12:30 AM)42% (Jul 28, 2:30 PM)29.50 "Hg (Jul 24, 3:30 PM)
Average74 °F83%29.67 "Hg
* Reported Jul 15 5:00 PM — Jul 30 5:30 PM, Khabarovsk, Weather by CustomWeather, © 2015

Note: Actual official high and low records may vary slightly from our data, if they occured in-between our weather recording intervals... More about our weather records

Advertising

Khabarovsk weather history for previous 24 hours

 ConditionsComfort  
Time TempWeatherWind HumidityBarometerVisibility
5:30 PM
Thu, Jul 30
79 °FScattered clouds.15 mph65%29.62 "HgN/A
5:00 PM79 °FScattered clouds.17 mph65%29.62 "HgN/A
4:30 PM79 °FScattered clouds.17 mph65%29.62 "HgN/A
4:00 PM79 °FScattered clouds.15 mph65%29.62 "HgN/A
3:30 PM81 °FScattered clouds.17 mph62%29.62 "HgN/A
3:00 PM79 °FScattered clouds.15 mph61%29.62 "HgN/A
2:30 PM79 °FScattered clouds.15 mph65%29.62 "HgN/A
1:30 PM79 °FScattered clouds.15 mph65%29.62 "HgN/A
1:00 PM79 °FPartly sunny.15 mph70%29.65 "HgN/A
12:30 PM79 °FPartly sunny.15 mph65%29.65 "HgN/A
12:00 PM77 °FPartly sunny.15 mph74%29.65 "HgN/A
11:30 AM77 °FPartly sunny.13 mph74%29.65 "HgN/A
11:00 AM77 °FPartly sunny.10 mph79%29.65 "HgN/A
10:30 AM77 °FScattered clouds.8 mph74%29.65 "HgN/A
10:00 AM75 °FScattered clouds.6 mph78%29.65 "HgN/A
9:30 AM75 °FScattered clouds.8 mph78%29.65 "HgN/A
9:00 AM75 °FMild.N/A83%29.65 "HgN/A
8:30 AM73 °FPassing clouds.6 mph89%29.65 "HgN/A
7:30 AM68 °FSunny.1 mph100%29.65 "Hg10 mi
7:00 AM70 °FSunny.No wind94%29.65 "Hg10 mi
6:30 AM64 °FPassing clouds.No wind100%29.65 "HgN/A
6:00 AM64 °FPassing clouds.No wind100%29.65 "HgN/A
5:30 AM64 °FPassing clouds.3 mph100%29.65 "HgN/A
5:00 AM66 °FPassing clouds.3 mph94%29.65 "HgN/A
4:30 AM66 °FPassing clouds.3 mph100%29.65 "HgN/A
4:00 AM66 °FPassing clouds.3 mph100%29.65 "HgN/A
3:30 AM66 °FPassing clouds.3 mph100%29.65 "HgN/A
3:00 AM66 °FPassing clouds.3 mph100%29.65 "HgN/A
2:30 AM66 °FPassing clouds.3 mph94%29.65 "HgN/A
2:00 AM66 °FPassing clouds.1 mph94%29.65 "HgN/A
1:30 AM68 °FPassing clouds.3 mph94%29.62 "HgN/A
1:00 AM68 °FPassing clouds.3 mph94%29.65 "HgN/A
12:30 AM68 °FPassing clouds.3 mph94%29.65 "HgN/A
12:00 AM68 °FPassing clouds.6 mph94%29.65 "HgN/A
11:30 PM
Wed, Jul 29
70 °FPassing clouds.3 mph88%29.65 "HgN/A
11:00 PM70 °FPassing clouds.3 mph88%29.65 "HgN/A
10:30 PM70 °FPassing clouds.3 mph88%29.65 "HgN/A
10:00 PM70 °FPassing clouds.6 mph88%29.65 "HgN/A
9:30 PM70 °FScattered clouds.6 mph88%29.65 "HgN/A
9:00 PM72 °FScattered clouds.6 mph83%29.62 "HgN/A
8:30 PM73 °FScattered clouds.3 mph78%29.62 "HgN/A
8:00 PM73 °FScattered clouds.3 mph78%29.62 "HgN/A
7:30 PM77 °FScattered clouds.6 mph69%29.62 "HgN/A
7:00 PM77 °FScattered clouds.8 mph69%29.62 "HgN/A
6:30 PM79 °FScattered clouds.8 mph61%29.62 "HgN/A
6:00 PM77 °FScattered clouds.8 mph65%29.62 "HgN/A
Weather by CustomWeather, © 2015

See weather overviewHow to use our weather pages